Location: Ida Center
(41.8662°N, 83.5713°W)
Time: 01:16:16
(UTC+00:00)

Cosmos 773 Rocket - Pass Details

Date: 17 November 2019
Orbit: 745 x 778 km, 74.1° (Epoch: 07 December)

Event Time Altitude Azimuth Distance (km) Brightness Sun altitude
Rises 22:38:33 0° 204° (SSW) 3,181 7.9 -5.4°
Reaches altitude 10° 22:40:54 10° 206° (SSW) 2,265 7.2 -5.8°
Maximum altitude 22:46:01 72° 291° (WNW) 796 4.3 -6.7°
Drops below altitude 10° 22:51:14 10° 16° (NNE) 2,301 6.1 -7.6°
Sets 22:53:38 0° 18° (NNE) 3,236 6.9 -8.0°
